• In Romania
  • List of Countries
  • For 7 days
  • Water Temperature
  • Satellite Maps
  • Weather Map
  • Weather Widgets
  • user-avatar
    Login

    Hourly Weather Pyatiusovo

    Today, 24 April, Tuesday

    Time Temperature Precipitation Wind Pressure Humidity
    00:00 +2°C° 0 mm 1 mps 742 mmHg 63%
    01:00 +2°C° 0 mm 1 mps 742 mmHg 64%
    02:00 +2°C° 0 mm 1 mps 742 mmHg 66%
    03:00 +1°C° 0 mm 2 mps 742 mmHg 66%
    04:00 +1°C° 0 mm 2 mps 741 mmHg 67%
    05:00 +1°C° 0 mm 2 mps 741 mmHg 68%
    06:00 +3°C° 0 mm 2 mps 741 mmHg 65%
    07:00 +4°C° 0 mm 3 mps 740 mmHg 61%
    08:00 +5°C° 0 mm 3 mps 740 mmHg 57%
    09:00 +8°C° 0 mm 3 mps 740 mmHg 56%
    10:00 +9°C° 0 mm 3 mps 740 mmHg 56%
    11:00 +10°C° 0 mm 4 mps 739 mmHg 55%
    12:00 +10°C° 0.2 mm 4 mps 739 mmHg 60%
    13:00 +10°C° 0.2 mm 4 mps 739 mmHg 65%
    14:00 +8°C° 0.2 mm 4 mps 738 mmHg 71%
    15:00 +8°C° 0.2 mm 4 mps 738 mmHg 74%
    16:00 +9°C° 0.2 mm 3 mps 738 mmHg 77%
    17:00 +8°C° 0.2 mm 3 mps 738 mmHg 81%
    18:00 +8°C° 0 mm 3 mps 737 mmHg 85%
    19:00 +7°C° 0 mm 3 mps 737 mmHg 88%
    20:00 +6°C° 0 mm 2 mps 737 mmHg 92%
    21:00 +6°C° 0.1 mm 2 mps 737 mmHg 93%
    22:00 +7°C° 0.1 mm 2 mps 737 mmHg 93%
    23:00 +7°C° 0.1 mm 2 mps 737 mmHg 94%

    Tomorrow, 25 April, Wednesday

    Time Temperature Precipitation Wind Pressure Humidity
    00:00 +7°C° 0.2 mm 2 mps 736 mmHg 95%
    01:00 +6°C° 0.2 mm 2 mps 736 mmHg 95%
    02:00 +6°C° 0.2 mm 2 mps 736 mmHg 96%
    03:00 +6°C° 0 mm 2 mps 736 mmHg 95%
    04:00 +5°C° 0 mm 2 mps 736 mmHg 95%
    05:00 +4°C° 0 mm 2 mps 736 mmHg 95%
    06:00 +4°C° 0.1 mm 3 mps 735 mmHg 92%
    07:00 +5°C° 0.1 mm 3 mps 735 mmHg 88%
    08:00 +6°C° 0.1 mm 4 mps 735 mmHg 85%
    09:00 +7°C° 0.2 mm 4 mps 735 mmHg 81%
    10:00 +8°C° 0.2 mm 4 mps 735 mmHg 77%
    11:00 +9°C° 0.2 mm 5 mps 735 mmHg 73%
    12:00 +9°C° 0.2 mm 5 mps 735 mmHg 68%
    13:00 +10°C° 0.2 mm 5 mps 735 mmHg 64%
    14:00 +10°C° 0.2 mm 5 mps 735 mmHg 60%
    15:00 +10°C° 0.1 mm 5 mps 735 mmHg 61%
    16:00 +9°C° 0.1 mm 5 mps 735 mmHg 62%
    17:00 +10°C° 0.1 mm 4 mps 735 mmHg 64%
    18:00 +8°C° 0.1 mm 4 mps 735 mmHg 70%
    19:00 +7°C° 0.1 mm 3 mps 735 mmHg 76%
    20:00 +6°C° 0.1 mm 2 mps 735 mmHg 82%
    21:00 +6°C° 0 mm 2 mps 735 mmHg 84%
    22:00 +5°C° 0 mm 2 mps 735 mmHg 86%
    23:00 +5°C° 0 mm 2 mps 735 mmHg 88%

    Day after tomorrow, 26 April, Thursday

    Time Temperature Precipitation Wind Pressure Humidity
    00:00 +5°C° 0 mm 2 mps 735 mmHg 89%
    01:00 +4°C° 0 mm 2 mps 735 mmHg 90%
    02:00 +4°C° 0 mm 2 mps 735 mmHg 92%
    03:00 +4°C° 0 mm 2 mps 735 mmHg 93%
    04:00 +4°C° 0 mm 2 mps 735 mmHg 95%
    05:00 +3°C° 0 mm 2 mps 734 mmHg 96%
    06:00 +5°C° 0.1 mm 2 mps 734 mmHg 89%
    07:00 +6°C° 0.1 mm 2 mps 734 mmHg 82%
    08:00 +8°C° 0.1 mm 2 mps 735 mmHg 75%
    09:00 +9°C° 0 mm 3 mps 735 mmHg 67%
    10:00 +11°C° 0 mm 3 mps 735 mmHg 59%
    11:00 +12°C° 0 mm 4 mps 735 mmHg 51%
    12:00 +13°C° 0.1 mm 4 mps 735 mmHg 49%
    13:00 +13°C° 0.1 mm 4 mps 735 mmHg 46%
    14:00 +14°C° 0.1 mm 4 mps 735 mmHg 44%
    15:00 +13°C° 0.1 mm 4 mps 736 mmHg 45%
    16:00 +13°C° 0.1 mm 4 mps 736 mmHg 47%
    17:00 +13°C° 0.1 mm 4 mps 736 mmHg 49%
    18:00 +11°C° 0.1 mm 3 mps 736 mmHg 57%
    19:00 +9°C° 0.1 mm 3 mps 737 mmHg 66%
    20:00 +8°C° 0.1 mm 2 mps 737 mmHg 74%
    21:00 +7°C° 0 mm 2 mps 737 mmHg 77%
    22:00 +7°C° 0 mm 2 mps 738 mmHg 80%
    23:00 +6°C° 0 mm 2 mps 738 mmHg 83%

    27 April, Friday

    Time Temperature Precipitation Wind Pressure Humidity
    00:00 +6°C° 0 mm 2 mps 738 mmHg 85%
    01:00 +5°C° 0 mm 2 mps 738 mmHg 87%
    02:00 +5°C° 0 mm 2 mps 738 mmHg 89%
    03:00 +5°C° 0 mm 2 mps 738 mmHg 90%
    04:00 +5°C° 0 mm 2 mps 738 mmHg 92%
    05:00 +5°C° 0 mm 2 mps 738 mmHg 94%
    06:00 +5°C° 0 mm 3 mps 739 mmHg 85%
    07:00 +7°C° 0 mm 3 mps 739 mmHg 77%
    08:00 +9°C° 0 mm 3 mps 739 mmHg 69%
    09:00 +10°C° 0.1 mm 4 mps 739 mmHg 63%
    10:00 +11°C° 0.1 mm 4 mps 740 mmHg 57%
    11:00 +12°C° 0.1 mm 5 mps 740 mmHg 50%
    12:00 +12°C° 0.2 mm 5 mps 740 mmHg 50%
    13:00 +12°C° 0.2 mm 5 mps 740 mmHg 50%
    14:00 +12°C° 0.2 mm 5 mps 740 mmHg 50%
    15:00 +12°C° 0.2 mm 5 mps 740 mmHg 52%
    16:00 +12°C° 0.2 mm 4 mps 741 mmHg 53%
    17:00 +11°C° 0.2 mm 4 mps 741 mmHg 54%
    18:00 +10°C° 0.1 mm 3 mps 742 mmHg 62%
    19:00 +8°C° 0.1 mm 3 mps 742 mmHg 70%
    20:00 +7°C° 0.1 mm 2 mps 743 mmHg 78%
    21:00 +6°C° 0 mm 2 mps 743 mmHg 81%
    22:00 +6°C° 0 mm 2 mps 744 mmHg 84%
    23:00 +5°C° 0 mm 2 mps 744 mmHg 88%

    28 April, Saturday

    Time Temperature Precipitation Wind Pressure Humidity
    00:00 +5°C° 0 mm 2 mps 744 mmHg 90%
    01:00 +4°C° 0 mm 2 mps 745 mmHg 92%
    02:00 +4°C° 0 mm 2 mps 745 mmHg 94%
    03:00 +4°C° 0 mm 2 mps 745 mmHg 95%
    04:00 +3°C° 0 mm 2 mps 746 mmHg 96%
    05:00 +3°C° 0 mm 2 mps 746 mmHg 96%
    06:00 +5°C° 0 mm 2 mps 746 mmHg 88%
    07:00 +6°C° 0 mm 2 mps 747 mmHg 80%
    08:00 +8°C° 0 mm 3 mps 747 mmHg 72%
    09:00 +9°C° 0 mm 3 mps 747 mmHg 64%
    10:00 +10°C° 0 mm 3 mps 747 mmHg 56%
    11:00 +12°C° 0 mm 3 mps 747 mmHg 49%
    12:00 +12°C° 0 mm 3 mps 747 mmHg 45%
    13:00 +13°C° 0 mm 3 mps 747 mmHg 42%
    14:00 +14°C° 0 mm 3 mps 747 mmHg 39%
    15:00 +14°C° 0 mm 3 mps 746 mmHg 41%
    16:00 +14°C° 0 mm 3 mps 746 mmHg 44%
    17:00 +13°C° 0 mm 3 mps 746 mmHg 46%
    18:00 +12°C° 0.1 mm 3 mps 746 mmHg 53%
    19:00 +11°C° 0.1 mm 3 mps 746 mmHg 60%
    20:00 +10°C° 0.1 mm 3 mps 745 mmHg 66%
    21:00 +9°C° 0.4 mm 3 mps 745 mmHg 70%
    22:00 +9°C° 0.4 mm 3 mps 745 mmHg 75%
    23:00 +8°C° 0.4 mm 3 mps 745 mmHg 79%

    29 April, Sunday

    Time Temperature Precipitation Wind Pressure Humidity
    00:00 +8°C° 0.4 mm 2 mps 745 mmHg 84%
    01:00 +8°C° 0.4 mm 2 mps 745 mmHg 88%
    02:00 +9°C° 0.4 mm 1 mps 745 mmHg 93%
    03:00 +8°C° 0.2 mm 1 mps 745 mmHg 94%
    04:00 +7°C° 0.2 mm 2 mps 745 mmHg 95%
    05:00 +6°C° 0.2 mm 2 mps 745 mmHg 96%
    06:00 +7°C° 0 mm 2 mps 745 mmHg 90%
    07:00 +8°C° 0 mm 2 mps 745 mmHg 84%
    08:00 +9°C° 0 mm 2 mps 746 mmHg 78%
    09:00 +10°C° 0 mm 2 mps 746 mmHg 69%
    10:00 +12°C° 0 mm 2 mps 746 mmHg 60%
    11:00 +13°C° 0 mm 2 mps 746 mmHg 52%
    12:00 +13°C° 0 mm 3 mps 746 mmHg 47%
    13:00 +14°C° 0 mm 3 mps 746 mmHg 43%
    14:00 +14°C° 0 mm 3 mps 746 mmHg 39%
    15:00 +14°C° 0 mm 3 mps 746 mmHg 40%
    16:00 +15°C° 0 mm 2 mps 746 mmHg 42%
    17:00 +15°C° 0 mm 2 mps 746 mmHg 43%
    18:00 +13°C° 0 mm 2 mps 746 mmHg 50%
    19:00 +11°C° 0 mm 1 mps 746 mmHg 58%
    20:00 +9°C° 0 mm 1 mps 746 mmHg 66%
    21:00 +8°C° 0 mm 1 mps 747 mmHg 68%
    22:00 +8°C° 0 mm 1 mps 747 mmHg 71%
    23:00 +6°C° 0 mm 0 mps 747 mmHg 73%
    Show more